Location: Schommer Observatory
(40.5200°N, 74.4500°W)
Time: 00:01:55
(UTC-04:00)

Tiangong 1 - Pass Details

Date: 11 October 2017
Orbit: 294 x 321 km, 42.8° (Epoch: 16 October)

Event Time Altitude Azimuth Distance (km) Brightness Sun altitude
Rises 19:31:49 0° 282° (WNW) 2,042 6.6 -13.8°
Reaches altitude 10° 19:33:50 10° 287° (WNW) 1,206 4.9 -14.2°
Maximum altitude 19:36:29 53° 6° (N) 388 1.0 -14.7°
Enters shadow 19:37:07 40° 57° (ENE) 475 1.1 -14.8°
